Location: *
(31.2983°S, 151.4094°E)
Time: 08:28:51
(UTC+00:00)

Cosmos 841 Rocket - Pass Details

Date: 25 August 2019
Orbit: 747 x 772 km, 74.0° (Epoch: 18 September)

Event Time Altitude Azimuth Distance (km) Brightness Sun altitude
Rises 19:42:47 0° 210° (SSW) 3,243 6.4 -8.4°
Reaches altitude 10° 19:45:26 10° 221° (SW) 2,305 5.5 -7.8°
Maximum altitude 19:49:52 29° 279° (W) 1,373 4.3 -6.9°
Drops below altitude 10° 19:54:15 10° 338° (NNW) 2,267 5.8 -6.0°
Sets 19:56:51 0° 349° (NNW) 3,180 6.7 -5.4°
